{"data":{"norad_id":87517,"intl_designator":"","name":"UNKNOWN","alt_names":[],"object_type":"UNKNOWN","status":"UNKNOWN","operator":null,"country":null,"launch_date":null,"launch_site_code":null,"launch_vehicle":null,"mission":null,"orbit_class":"UNKNOWN","rcs_meters":null,"size_class":null,"mass_kg":null,"dimensions":null,"purposes":[],"wikipedia_slug":null,"has_3d_model":false,"image_url":null,"decayed_at":null,"tle_current":{"epoch":"2026-05-23T10:14:07.133280Z","epoch_age_seconds":208235,"freshness":"STALE","line1":"1 87517U          26143.42647145  .00002519  00000+0  70750-3 0  9995","line2":"2 87517  65.8227 198.3872 0670457 229.4075 149.2668 13.62523759614938","mean_motion":13.62523759,"eccentricity":0.0670457,"inclination_deg":65.8227,"raan_deg":198.3872,"arg_perigee_deg":229.4075,"mean_anomaly_deg":149.2668,"bstar":0.0007075,"rev_number":61493,"period_min":105.68623045934,"perigee_km":530.08294126558,"apogee_km":1522.9856841247,"semimajor_km":7404.6713126951,"source":"CELESTRAK","updated_at":"2026-05-25T13:38:11.671327Z"}}}